TimeAKDT,TemperatureF,Dew PointF,Humidity,Sea Level PressureIn,VisibilityMPH,Wind Direction,Wind SpeedMPH,Gust SpeedMPH,PrecipitationIn,Events,Conditions,WindDirDegrees,DateUTC
12:53 AM,32.0,24.1,73,29.21,10.0,NE,4.6,-,N/A,,Mostly Cloudy,50,2013-09-21 08:53:00
1:53 AM,30.9,21.9,69,29.19,10.0,ENE,4.6,-,N/A,,Mostly Cloudy,60,2013-09-21 09:53:00
2:53 AM,28.0,19.9,72,29.17,10.0,ENE,3.5,-,N/A,,Mostly Cloudy,60,2013-09-21 10:53:00
3:53 AM,27.0,19.9,75,29.16,10.0,NNE,6.9,-,N/A,,Mostly Cloudy,30,2013-09-21 11:53:00
4:53 AM,26.1,19.0,75,29.15,10.0,NNE,6.9,-,N/A,,Partly Cloudy,20,2013-09-21 12:53:00
5:53 AM,25.0,19.0,78,29.15,10.0,North,4.6,-,N/A,,Partly Cloudy,10,2013-09-21 13:53:00
6:53 AM,26.1,18.0,71,29.15,10.0,Calm,Calm,-,N/A,,Partly Cloudy,0,2013-09-21 14:53:00
7:53 AM,26.1,18.0,71,29.15,10.0,North,4.6,-,N/A,,Scattered Clouds,350,2013-09-21 15:53:00
8:53 AM,28.9,19.9,69,29.15,10.0,North,5.8,-,N/A,,Scattered Clouds,360,2013-09-21 16:53:00
9:53 AM,32.0,19.9,61,29.16,10.0,North,6.9,-,N/A,,Scattered Clouds,10,2013-09-21 17:53:00
10:53 AM,35.1,19.0,52,29.16,10.0,North,6.9,-,N/A,,Scattered Clouds,10,2013-09-21 18:53:00
11:53 AM,37.0,19.0,48,29.16,10.0,Calm,Calm,-,N/A,,Scattered Clouds,0,2013-09-21 19:53:00
12:53 PM,39.0,19.0,45,29.16,10.0,ESE,5.8,-,N/A,,Mostly Cloudy,110,2013-09-21 20:53:00
1:53 PM,41.0,19.0,41,29.17,10.0,Calm,Calm,-,N/A,,Mostly Cloudy,0,2013-09-21 21:53:00
2:53 PM,42.1,19.0,40,29.18,10.0,NNE,3.5,-,N/A,,Mostly Cloudy,30,2013-09-21 22:53:00
3:53 PM,43.0,19.0,38,29.18,10.0,Calm,Calm,-,N/A,,Mostly Cloudy,0,2013-09-21 23:53:00
4:53 PM,42.1,19.0,40,29.18,10.0,Variable,5.8,-,N/A,,Mostly Cloudy,0,2013-09-22 00:53:00
5:53 PM,42.1,19.0,40,29.19,10.0,NW,4.6,-,N/A,,Mostly Cloudy,310,2013-09-22 01:53:00
6:53 PM,39.9,19.9,45,29.20,10.0,NW,8.1,-,N/A,,Mostly Cloudy,310,2013-09-22 02:53:00
7:53 PM,36.0,19.0,50,29.21,10.0,NNW,8.1,-,N/A,,Mostly Cloudy,330,2013-09-22 03:53:00
8:53 PM,35.1,19.0,52,29.22,10.0,NNW,8.1,-,N/A,,Mostly Cloudy,330,2013-09-22 04:53:00
9:53 PM,34.0,18.0,52,29.24,10.0,NW,5.8,-,N/A,,Scattered Clouds,320,2013-09-22 05:53:00
10:53 PM,33.1,19.0,56,29.24,10.0,NNW,9.2,-,N/A,,Mostly Cloudy,340,2013-09-22 06:53:00
11:53 PM,34.0,19.0,54,29.24,10.0,North,6.9,-,N/A,,Mostly Cloudy,350,2013-09-22 07:53:00